Year,Month,Day,Hour,Minute,Value (Times are PST for temperature in C)
2011,11,27,00,00,11.90
2011,11,27,00,01,12.00
2011,11,27,00,02,12.00
2011,11,27,00,03,12.10
2011,11,27,00,04,12.10
2011,11,27,00,05,12.10
2011,11,27,00,06,12.20
2011,11,27,00,07,12.20
2011,11,27,00,08,12.20
2011,11,27,00,09,12.30
2011,11,27,00,10,12.30
2011,11,27,00,11,12.30
2011,11,27,00,12,12.30
2011,11,27,00,13,12.30
2011,11,27,00,14,12.30
2011,11,27,00,15,12.30
2011,11,27,00,16,12.30
2011,11,27,00,17,12.30
2011,11,27,00,18,12.30
2011,11,27,00,19,12.30
2011,11,27,00,20,12.30
2011,11,27,00,21,12.30
2011,11,27,00,22,12.30
2011,11,27,00,23,12.30
2011,11,27,00,24,12.30
2011,11,27,00,25,12.30
2011,11,27,00,26,12.30
2011,11,27,00,27,12.30
2011,11,27,00,28,12.30
2011,11,27,00,29,12.30
2011,11,27,00,30,12.30
2011,11,27,00,31,12.30
2011,11,27,00,32,12.30
2011,11,27,00,33,12.30
2011,11,27,00,34,12.30
2011,11,27,00,35,12.30
2011,11,27,00,36,12.30
2011,11,27,00,37,12.30
2011,11,27,00,38,12.20
2011,11,27,00,39,12.20
2011,11,27,00,40,12.20
2011,11,27,00,41,12.20
2011,11,27,00,42,12.20
2011,11,27,00,43,12.20
2011,11,27,00,44,12.20
2011,11,27,00,45,12.20
2011,11,27,00,46,12.20
2011,11,27,00,47,12.20
2011,11,27,00,48,12.20
2011,11,27,00,49,12.20
2011,11,27,00,50,12.20
2011,11,27,00,51,12.20
2011,11,27,00,52,12.30
2011,11,27,00,53,12.30
2011,11,27,00,54,12.30
2011,11,27,00,55,12.30
2011,11,27,00,56,12.20
2011,11,27,00,57,12.20
2011,11,27,00,58,12.20
2011,11,27,00,59,12.20
2011,11,27,01,00,12.30
2011,11,27,01,01,12.30
2011,11,27,01,02,12.30
2011,11,27,01,03,12.30
2011,11,27,01,04,12.30
2011,11,27,01,05,12.30
2011,11,27,01,06,12.30
2011,11,27,01,07,12.30
2011,11,27,01,08,12.30
2011,11,27,01,09,12.30
2011,11,27,01,10,12.30
2011,11,27,01,11,12.30
2011,11,27,01,12,12.30
2011,11,27,01,13,12.40
2011,11,27,01,14,12.40
2011,11,27,01,15,12.40
2011,11,27,01,16,12.40
2011,11,27,01,17,12.40
2011,11,27,01,18,12.30
2011,11,27,01,19,12.30
2011,11,27,01,20,12.30
2011,11,27,01,21,12.30
2011,11,27,01,22,12.30
2011,11,27,01,23,12.30
2011,11,27,01,24,12.30
2011,11,27,01,25,12.30
2011,11,27,01,26,12.30
2011,11,27,01,27,12.30
2011,11,27,01,28,12.30
2011,11,27,01,29,12.30
2011,11,27,01,30,12.30
2011,11,27,01,31,12.30
2011,11,27,01,32,12.30
2011,11,27,01,33,12.30
2011,11,27,01,34,12.30
2011,11,27,01,35,12.30
2011,11,27,01,36,12.30
2011,11,27,01,37,12.30
2011,11,27,01,38,12.30
2011,11,27,01,39,12.30
2011,11,27,01,40,12.30
2011,11,27,01,41,12.30
2011,11,27,01,42,12.30
2011,11,27,01,43,12.30
2011,11,27,01,44,12.30
2011,11,27,01,45,12.30
2011,11,27,01,46,12.30
2011,11,27,01,47,12.30
2011,11,27,01,48,12.30
2011,11,27,01,49,12.20
2011,11,27,01,50,12.20
2011,11,27,01,51,12.20
2011,11,27,01,52,12.20
2011,11,27,01,53,12.10
2011,11,27,01,54,12.10
2011,11,27,01,55,12.10
2011,11,27,01,56,12.10
2011,11,27,01,57,12.10
2011,11,27,01,58,12.10
2011,11,27,01,59,12.10
2011,11,27,02,00,12.10
2011,11,27,02,01,12.00
2011,11,27,02,02,12.00
2011,11,27,02,03,12.00
2011,11,27,02,04,12.00
2011,11,27,02,05,12.00
2011,11,27,02,06,12.00
2011,11,27,02,07,12.00
2011,11,27,02,08,12.00
2011,11,27,02,09,12.00
2011,11,27,02,10,12.00
2011,11,27,02,11,12.00
2011,11,27,02,12,12.00
2011,11,27,02,13,12.00
2011,11,27,02,14,12.00
2011,11,27,02,15,12.00
2011,11,27,02,16,12.00
2011,11,27,02,17,12.00
2011,11,27,02,18,12.00
2011,11,27,02,19,12.00
2011,11,27,02,20,12.00
2011,11,27,02,21,12.00
2011,11,27,02,22,12.00
2011,11,27,02,23,12.00
2011,11,27,02,24,11.90
2011,11,27,02,25,11.90
2011,11,27,02,26,11.90
2011,11,27,02,27,11.90
2011,11,27,02,28,11.80
2011,11,27,02,29,11.80
2011,11,27,02,30,11.80
2011,11,27,02,31,11.80
2011,11,27,02,32,11.80
2011,11,27,02,33,11.80
2011,11,27,02,34,11.80
2011,11,27,02,35,11.80
2011,11,27,02,36,11.80
2011,11,27,02,37,11.80
2011,11,27,02,38,11.80
2011,11,27,02,39,11.80
2011,11,27,02,40,11.80
2011,11,27,02,41,11.70
2011,11,27,02,42,11.60
2011,11,27,02,43,11.60
2011,11,27,02,44,11.60
2011,11,27,02,45,11.50
2011,11,27,02,46,11.40
2011,11,27,02,47,11.30
2011,11,27,02,48,11.30
2011,11,27,02,49,11.20
2011,11,27,02,50,11.20
2011,11,27,02,51,11.30
2011,11,27,02,52,11.20
2011,11,27,02,53,11.20
2011,11,27,02,54,11.20
2011,11,27,02,55,11.10
2011,11,27,02,56,11.10
2011,11,27,02,57,11.10
2011,11,27,02,58,11.10
2011,11,27,02,59,11.10
2011,11,27,03,00,11.10
2011,11,27,03,01,11.10
2011,11,27,03,02,11.10
2011,11,27,03,03,11.10
2011,11,27,03,04,11.00
2011,11,27,03,05,10.90
2011,11,27,03,06,10.90
2011,11,27,03,07,10.90
2011,11,27,03,08,10.90
2011,11,27,03,09,10.90
2011,11,27,03,10,10.80
2011,11,27,03,11,10.80
2011,11,27,03,12,10.80
2011,11,27,03,13,10.70
2011,11,27,03,14,10.70
2011,11,27,03,15,10.80
2011,11,27,03,16,10.80
2011,11,27,03,17,10.80
2011,11,27,03,18,10.80
2011,11,27,03,19,10.80
2011,11,27,03,20,10.80
2011,11,27,03,21,10.80
2011,11,27,03,22,10.80
2011,11,27,03,23,10.80
2011,11,27,03,24,10.70
2011,11,27,03,25,10.80
2011,11,27,03,26,10.80
2011,11,27,03,27,10.80
2011,11,27,03,28,10.80
2011,11,27,03,29,10.80
2011,11,27,03,30,10.80
2011,11,27,03,31,10.80
2011,11,27,03,32,10.80
2011,11,27,03,33,10.80
2011,11,27,03,34,10.80
2011,11,27,03,35,10.80
2011,11,27,03,36,10.80
2011,11,27,03,37,10.80
2011,11,27,03,38,10.80
2011,11,27,03,39,10.80
2011,11,27,03,40,10.80
2011,11,27,03,41,10.80
2011,11,27,03,42,10.90
2011,11,27,03,43,10.90
2011,11,27,03,44,10.90
2011,11,27,03,45,10.90
2011,11,27,03,46,10.90
2011,11,27,03,47,10.90
2011,11,27,03,48,10.90
2011,11,27,03,49,10.90
2011,11,27,03,50,10.90
2011,11,27,03,51,10.80
2011,11,27,03,52,10.70
2011,11,27,03,53,10.60
2011,11,27,03,54,10.60
2011,11,27,03,55,10.50
2011,11,27,03,56,10.40
2011,11,27,03,57,10.40
2011,11,27,03,58,10.40
2011,11,27,03,59,10.40
2011,11,27,04,00,10.40
2011,11,27,04,01,10.30
2011,11,27,04,02,10.30
2011,11,27,04,03,10.30
2011,11,27,04,04,10.30
2011,11,27,04,05,10.30
2011,11,27,04,06,10.30
2011,11,27,04,07,10.20
2011,11,27,04,08,10.20
2011,11,27,04,09,10.20
2011,11,27,04,10,10.20
2011,11,27,04,11,10.20
2011,11,27,04,12,10.10
2011,11,27,04,13,10.10
2011,11,27,04,14,10.10
2011,11,27,04,15,10.10
2011,11,27,04,16,10.10
2011,11,27,04,17,10.10
2011,11,27,04,18,10.10
2011,11,27,04,19,10.10
2011,11,27,04,20,10.10
2011,11,27,04,21,10.10
2011,11,27,04,22,10.10
2011,11,27,04,23,10.00
2011,11,27,04,24,9.90
2011,11,27,04,25,9.90
2011,11,27,04,26,9.90
2011,11,27,04,27,9.90
2011,11,27,04,28,9.90
2011,11,27,04,29,10.00
2011,11,27,04,30,10.10
2011,11,27,04,31,10.20
2011,11,27,04,32,10.30
2011,11,27,04,33,10.40
2011,11,27,04,34,10.40
2011,11,27,04,35,10.50
2011,11,27,04,36,10.60
2011,11,27,04,37,10.70
2011,11,27,04,38,10.80
2011,11,27,04,39,10.90
2011,11,27,04,40,10.90
2011,11,27,04,41,10.90
2011,11,27,04,42,10.90
2011,11,27,04,43,11.00
2011,11,27,04,44,11.10
2011,11,27,04,45,11.10
2011,11,27,04,46,11.10
2011,11,27,04,47,11.10
2011,11,27,04,48,11.10
2011,11,27,04,49,11.10
2011,11,27,04,50,11.10
2011,11,27,04,51,11.10
2011,11,27,04,52,11.20
2011,11,27,04,53,11.20
2011,11,27,04,54,11.20
2011,11,27,04,55,11.20
2011,11,27,04,56,11.20
2011,11,27,04,57,11.20
2011,11,27,04,58,11.30
2011,11,27,04,59,11.30
2011,11,27,05,00,11.30
2011,11,27,05,01,11.30
2011,11,27,05,02,11.30
2011,11,27,05,03,11.30
2011,11,27,05,04,11.30
2011,11,27,05,05,11.30
2011,11,27,05,06,11.30
2011,11,27,05,07,11.30
2011,11,27,05,08,11.30
2011,11,27,05,09,11.30
2011,11,27,05,10,11.30
2011,11,27,05,11,11.30
2011,11,27,05,12,11.30
2011,11,27,05,13,11.30
2011,11,27,05,14,11.30
2011,11,27,05,15,11.30
2011,11,27,05,16,11.30
2011,11,27,05,17,11.30
2011,11,27,05,18,11.30
2011,11,27,05,19,11.30
2011,11,27,05,20,11.30
2011,11,27,05,21,11.30
2011,11,27,05,22,11.30
2011,11,27,05,23,11.30
2011,11,27,05,24,11.30
2011,11,27,05,25,11.30
2011,11,27,05,26,11.30
2011,11,27,05,27,11.30
2011,11,27,05,28,11.30
2011,11,27,05,29,11.30
2011,11,27,05,30,11.30
2011,11,27,05,31,11.20
2011,11,27,05,32,11.20
2011,11,27,05,33,11.20
2011,11,27,05,34,11.20
2011,11,27,05,35,11.20
2011,11,27,05,36,11.20
2011,11,27,05,37,11.20
2011,11,27,05,38,11.20
2011,11,27,05,39,11.20
2011,11,27,05,40,11.20
2011,11,27,05,41,11.20
2011,11,27,05,42,11.20
2011,11,27,05,43,11.20
2011,11,27,05,44,11.20
2011,11,27,05,45,11.20
2011,11,27,05,46,11.20
2011,11,27,05,47,11.20
2011,11,27,05,48,11.20
2011,11,27,05,49,11.20
2011,11,27,05,50,11.20
2011,11,27,05,51,11.20
2011,11,27,05,52,11.20
2011,11,27,05,53,11.20
2011,11,27,05,54,11.20
2011,11,27,05,55,11.20
2011,11,27,05,56,11.10
2011,11,27,05,57,11.10
2011,11,27,05,58,11.10
2011,11,27,05,59,11.10
2011,11,27,06,00,11.10
2011,11,27,06,01,11.10
2011,11,27,06,02,11.10
2011,11,27,06,03,11.10
2011,11,27,06,04,11.10
2011,11,27,06,05,11.10
2011,11,27,06,06,11.10
2011,11,27,06,07,11.10
2011,11,27,06,08,11.10
2011,11,27,06,09,11.10
2011,11,27,06,10,11.10
2011,11,27,06,11,11.10
2011,11,27,06,12,11.10
2011,11,27,06,13,11.10
2011,11,27,06,14,11.10
2011,11,27,06,15,11.10
2011,11,27,06,16,11.10
2011,11,27,06,17,11.10
2011,11,27,06,18,11.10
2011,11,27,06,19,11.10
2011,11,27,06,20,11.10
2011,11,27,06,21,11.10
2011,11,27,06,22,11.10
2011,11,27,06,23,11.10
2011,11,27,06,24,11.10
2011,11,27,06,25,11.10
2011,11,27,06,26,11.10
2011,11,27,06,27,11.10
2011,11,27,06,28,11.00
2011,11,27,06,29,10.90
2011,11,27,06,30,10.90
2011,11,27,06,31,10.90
2011,11,27,06,32,10.90
2011,11,27,06,33,10.90
2011,11,27,06,34,10.90
2011,11,27,06,35,10.90
2011,11,27,06,36,10.90
2011,11,27,06,37,10.90
2011,11,27,06,38,10.90
2011,11,27,06,39,10.90
2011,11,27,06,40,10.90
2011,11,27,06,41,10.90
2011,11,27,06,42,10.90
2011,11,27,06,43,10.90
2011,11,27,06,44,10.90
2011,11,27,06,45,10.90
2011,11,27,06,46,10.90
2011,11,27,06,47,10.90
2011,11,27,06,48,10.90
2011,11,27,06,49,10.90
2011,11,27,06,50,10.90
2011,11,27,06,51,10.90
2011,11,27,06,52,10.90
2011,11,27,06,53,10.90
2011,11,27,06,54,10.90
2011,11,27,06,55,10.90
2011,11,27,06,56,10.90
2011,11,27,06,57,10.90
2011,11,27,06,58,10.90
2011,11,27,06,59,10.90
2011,11,27,07,00,10.90
2011,11,27,07,01,10.90
2011,11,27,07,02,10.90
2011,11,27,07,03,10.90
2011,11,27,07,04,10.90
2011,11,27,07,05,10.90
2011,11,27,07,06,10.90
2011,11,27,07,07,10.90
2011,11,27,07,08,10.90
2011,11,27,07,09,10.90
2011,11,27,07,10,10.90
2011,11,27,07,11,10.90
2011,11,27,07,12,10.90
2011,11,27,07,13,10.90
2011,11,27,07,14,10.90
2011,11,27,07,15,10.90
2011,11,27,07,16,10.90
2011,11,27,07,17,10.90
2011,11,27,07,18,10.90
2011,11,27,07,19,11.00
2011,11,27,07,20,11.10
2011,11,27,07,21,11.10
2011,11,27,07,22,11.10
2011,11,27,07,23,11.10
2011,11,27,07,24,11.10
2011,11,27,07,25,11.10
2011,11,27,07,26,11.10
2011,11,27,07,27,11.10
2011,11,27,07,28,11.10
2011,11,27,07,29,11.10
2011,11,27,07,30,11.00
2011,11,27,07,31,10.90
2011,11,27,07,32,10.90
2011,11,27,07,33,10.90
2011,11,27,07,34,10.90
2011,11,27,07,35,10.90
2011,11,27,07,36,10.90
2011,11,27,07,37,10.90
2011,11,27,07,38,10.90
2011,11,27,07,39,10.90
2011,11,27,07,40,10.90
2011,11,27,07,41,10.90
2011,11,27,07,42,10.90
2011,11,27,07,43,11.00
2011,11,27,07,44,11.10
2011,11,27,07,45,11.10
2011,11,27,07,46,11.10
2011,11,27,07,47,11.10
2011,11,27,07,48,11.10
2011,11,27,07,49,11.10
2011,11,27,07,50,11.10
2011,11,27,07,51,11.10
2011,11,27,07,52,11.10
2011,11,27,07,53,11.10
2011,11,27,07,54,11.10
2011,11,27,07,55,11.10
2011,11,27,07,56,11.10
2011,11,27,07,57,11.10
2011,11,27,07,58,11.10
2011,11,27,07,59,11.10
2011,11,27,08,00,11.10
2011,11,27,08,01,11.10
2011,11,27,08,02,11.10
2011,11,27,08,03,11.10
2011,11,27,08,04,11.10
2011,11,27,08,05,11.10
2011,11,27,08,06,11.10
2011,11,27,08,07,11.10
2011,11,27,08,08,11.10
2011,11,27,08,09,11.10
2011,11,27,08,10,11.10
2011,11,27,08,11,11.10
2011,11,27,08,12,11.10
2011,11,27,08,13,11.10
2011,11,27,08,14,11.10
2011,11,27,08,15,11.10
2011,11,27,08,16,11.10
2011,11,27,08,17,11.10
2011,11,27,08,18,11.00
2011,11,27,08,19,10.90
2011,11,27,08,20,10.90
2011,11,27,08,21,10.90
2011,11,27,08,22,10.90
2011,11,27,08,23,10.90
2011,11,27,08,24,10.90
2011,11,27,08,25,10.90
2011,11,27,08,26,10.90
2011,11,27,08,27,10.80
2011,11,27,08,28,10.80
2011,11,27,08,29,10.70
2011,11,27,08,30,10.70
2011,11,27,08,31,10.70
2011,11,27,08,32,10.60
2011,11,27,08,33,10.60
2011,11,27,08,34,10.60
2011,11,27,08,35,10.60
2011,11,27,08,36,10.60
2011,11,27,08,37,10.60
2011,11,27,08,38,10.50
2011,11,27,08,39,10.40
2011,11,27,08,40,10.40
2011,11,27,08,41,10.40
2011,11,27,08,42,10.40
2011,11,27,08,43,10.40
2011,11,27,08,44,10.30
2011,11,27,08,45,10.30
2011,11,27,08,46,10.20
2011,11,27,08,47,10.20
2011,11,27,08,48,10.10
2011,11,27,08,49,10.10
2011,11,27,08,50,10.10
2011,11,27,08,51,10.00
2011,11,27,08,52,9.90
2011,11,27,08,53,9.90
2011,11,27,08,54,9.90
2011,11,27,08,55,9.90
2011,11,27,08,56,9.90
2011,11,27,08,57,9.90
2011,11,27,08,58,9.90
2011,11,27,08,59,9.90
2011,11,27,09,00,9.90
2011,11,27,09,01,9.90
2011,11,27,09,02,9.90
2011,11,27,09,03,9.90
2011,11,27,09,04,9.90
2011,11,27,09,05,9.90
2011,11,27,09,06,9.80
2011,11,27,09,07,9.80
2011,11,27,09,08,9.80
2011,11,27,09,09,9.70
2011,11,27,09,10,9.70
2011,11,27,09,11,9.70
2011,11,27,09,12,9.70
2011,11,27,09,13,9.70
2011,11,27,09,14,9.70
2011,11,27,09,15,9.70
2011,11,27,09,16,9.70
2011,11,27,09,17,9.70
2011,11,27,09,18,9.60
2011,11,27,09,19,9.60
2011,11,27,09,20,9.60
2011,11,27,09,21,9.60
2011,11,27,09,22,9.60
2011,11,27,09,23,9.60
2011,11,27,09,24,9.50
2011,11,27,09,25,9.50
2011,11,27,09,26,9.50
2011,11,27,09,27,9.50
2011,11,27,09,28,9.50
2011,11,27,09,29,9.50
2011,11,27,09,30,9.40
2011,11,27,09,31,9.40
2011,11,27,09,32,9.40
2011,11,27,09,33,9.40
2011,11,27,09,34,9.40
2011,11,27,09,35,9.40
2011,11,27,09,36,9.40
2011,11,27,09,37,9.40
2011,11,27,09,38,9.40
2011,11,27,09,39,9.40
2011,11,27,09,40,9.40
2011,11,27,09,41,9.40
2011,11,27,09,42,9.30
2011,11,27,09,43,9.30
2011,11,27,09,44,9.30
2011,11,27,09,45,9.30
2011,11,27,09,46,9.30
2011,11,27,09,47,9.30
2011,11,27,09,48,9.30
2011,11,27,09,49,9.20
2011,11,27,09,50,9.20
2011,11,27,09,51,9.20
2011,11,27,09,52,9.20
2011,11,27,09,53,9.20
2011,11,27,09,54,9.20
2011,11,27,09,55,9.20
2011,11,27,09,56,9.20
2011,11,27,09,57,9.20
2011,11,27,09,58,9.20
2011,11,27,09,59,9.20
2011,11,27,10,00,9.20
2011,11,27,10,01,9.20
2011,11,27,10,02,9.20
2011,11,27,10,03,9.10
2011,11,27,10,04,9.10
2011,11,27,10,05,9.10
2011,11,27,10,06,9.10
2011,11,27,10,07,9.10
2011,11,27,10,08,9.10
2011,11,27,10,09,9.10
2011,11,27,10,10,9.10
2011,11,27,10,11,9.10
2011,11,27,10,12,9.20
2011,11,27,10,13,9.20
2011,11,27,10,14,9.20
2011,11,27,10,15,9.20
2011,11,27,10,16,9.20
2011,11,27,10,17,9.20
2011,11,27,10,18,9.20
2011,11,27,10,19,9.20
2011,11,27,10,20,9.20
2011,11,27,10,21,9.20
2011,11,27,10,22,9.20
2011,11,27,10,23,9.20
2011,11,27,10,24,9.20
2011,11,27,10,25,9.20
2011,11,27,10,26,9.20
2011,11,27,10,27,9.10
2011,11,27,10,28,9.10
2011,11,27,10,29,9.10
2011,11,27,10,30,9.10
2011,11,27,10,31,9.10
2011,11,27,10,32,9.10
2011,11,27,10,33,9.10
2011,11,27,10,34,9.10
2011,11,27,10,35,9.10
2011,11,27,10,36,9.10
2011,11,27,10,37,9.10
2011,11,27,10,38,9.10
2011,11,27,10,39,9.10
2011,11,27,10,40,9.10
2011,11,27,10,41,9.10
2011,11,27,10,42,9.10
2011,11,27,10,43,9.10
2011,11,27,10,44,9.20
2011,11,27,10,45,9.20
2011,11,27,10,46,9.20
2011,11,27,10,47,9.20
2011,11,27,10,48,9.20
2011,11,27,10,49,9.20
2011,11,27,10,50,9.20
2011,11,27,10,51,9.20
2011,11,27,10,52,9.20
2011,11,27,10,53,9.20
2011,11,27,10,54,9.20
2011,11,27,10,55,9.20
2011,11,27,10,56,9.20
2011,11,27,10,57,9.20
2011,11,27,10,58,9.20
2011,11,27,10,59,9.20
2011,11,27,11,00,9.20
2011,11,27,11,01,9.20
2011,11,27,11,02,9.30
2011,11,27,11,03,9.30
2011,11,27,11,04,9.40
2011,11,27,11,05,9.40
2011,11,27,11,06,9.50
2011,11,27,11,07,9.50
2011,11,27,11,08,9.60
2011,11,27,11,09,9.60
2011,11,27,11,10,9.60
2011,11,27,11,11,9.70
2011,11,27,11,12,9.70
2011,11,27,11,13,9.70
2011,11,27,11,14,9.70
2011,11,27,11,15,9.70
2011,11,27,11,16,9.70
2011,11,27,11,17,9.70
2011,11,27,11,18,9.70
2011,11,27,11,19,9.70
2011,11,27,11,20,9.70
2011,11,27,11,21,9.70
2011,11,27,11,22,9.70
2011,11,27,11,23,9.70
2011,11,27,11,24,9.80
2011,11,27,11,25,9.80
2011,11,27,11,26,9.80
2011,11,27,11,27,9.80
2011,11,27,11,28,9.80
2011,11,27,11,29,9.80
2011,11,27,11,30,9.80
2011,11,27,11,31,9.90
2011,11,27,11,32,9.90
2011,11,27,11,33,9.90
2011,11,27,11,34,9.90
2011,11,27,11,35,9.90
2011,11,27,11,36,9.90
2011,11,27,11,37,9.90
2011,11,27,11,38,9.90
2011,11,27,11,39,9.80
2011,11,27,11,40,9.80
2011,11,27,11,41,9.80
2011,11,27,11,42,9.80
2011,11,27,11,43,9.80
2011,11,27,11,44,9.80
2011,11,27,11,45,9.80
2011,11,27,11,46,9.80
2011,11,27,11,47,9.80
2011,11,27,11,48,9.90
2011,11,27,11,49,9.90
2011,11,27,11,50,9.90
2011,11,27,11,51,9.90
2011,11,27,11,52,9.90
2011,11,27,11,53,9.90
2011,11,27,11,54,9.90
2011,11,27,11,55,9.90
2011,11,27,11,56,9.90
2011,11,27,11,57,9.90
2011,11,27,11,58,9.90
2011,11,27,11,59,9.90
2011,11,27,12,00,9.90
2011,11,27,12,01,9.90
2011,11,27,12,02,9.90
2011,11,27,12,03,9.90
2011,11,27,12,04,9.90
2011,11,27,12,05,9.90
2011,11,27,12,06,9.90
2011,11,27,12,07,9.90
2011,11,27,12,08,10.00
2011,11,27,12,09,10.10
2011,11,27,12,10,10.10
2011,11,27,12,11,10.10
2011,11,27,12,12,10.10
2011,11,27,12,13,10.10
2011,11,27,12,14,10.10
2011,11,27,12,15,10.10
2011,11,27,12,16,10.10
2011,11,27,12,17,10.10
2011,11,27,12,18,10.10
2011,11,27,12,19,10.10
2011,11,27,12,20,10.10
2011,11,27,12,21,10.10
2011,11,27,12,22,10.10
2011,11,27,12,23,10.10
2011,11,27,12,24,10.10
2011,11,27,12,25,10.10
2011,11,27,12,26,10.10
2011,11,27,12,27,10.10
2011,11,27,12,28,10.10
2011,11,27,12,29,10.20
2011,11,27,12,30,10.20
2011,11,27,12,31,10.20
2011,11,27,12,32,10.20
2011,11,27,12,33,10.20
2011,11,27,12,34,10.20
2011,11,27,12,35,10.20
2011,11,27,12,36,10.20
2011,11,27,12,37,10.20
2011,11,27,12,38,10.20
2011,11,27,12,39,10.20
2011,11,27,12,40,10.30
2011,11,27,12,41,10.30
2011,11,27,12,42,10.30
2011,11,27,12,43,10.30
2011,11,27,12,44,10.30
2011,11,27,12,45,10.30
2011,11,27,12,46,10.30
2011,11,27,12,47,10.30
2011,11,27,12,48,10.30
2011,11,27,12,49,10.30
2011,11,27,12,50,10.30
2011,11,27,12,51,10.30
2011,11,27,12,52,10.30
2011,11,27,12,53,10.30
2011,11,27,12,54,10.30
2011,11,27,12,55,10.30
2011,11,27,12,56,10.30
2011,11,27,12,57,10.30
2011,11,27,12,58,10.20
2011,11,27,12,59,10.20
2011,11,27,13,00,10.20
2011,11,27,13,01,10.20
2011,11,27,13,02,10.20
2011,11,27,13,03,10.20
2011,11,27,13,04,10.10
2011,11,27,13,05,10.10
2011,11,27,13,06,10.10
2011,11,27,13,07,10.10
2011,11,27,13,08,10.10
2011,11,27,13,09,10.10
2011,11,27,13,10,10.10
2011,11,27,13,11,10.10
2011,11,27,13,12,10.10
2011,11,27,13,13,10.10
2011,11,27,13,14,10.10
2011,11,27,13,15,10.10
2011,11,27,13,16,10.00
2011,11,27,13,17,9.90
2011,11,27,13,18,9.90
2011,11,27,13,19,9.90
2011,11,27,13,20,9.80
2011,11,27,13,21,9.80
2011,11,27,13,22,9.70
2011,11,27,13,23,9.70
2011,11,27,13,24,9.60
2011,11,27,13,25,9.50
2011,11,27,13,26,9.50
2011,11,27,13,27,9.40
2011,11,27,13,28,9.40
2011,11,27,13,29,9.40
2011,11,27,13,30,9.40
2011,11,27,13,31,9.40
2011,11,27,13,32,9.40
2011,11,27,13,33,9.40
2011,11,27,13,34,9.40
2011,11,27,13,35,9.40
2011,11,27,13,36,9.40
2011,11,27,13,37,9.40
2011,11,27,13,38,9.40
2011,11,27,13,39,9.40
2011,11,27,13,40,9.50
2011,11,27,13,41,9.60
2011,11,27,13,42,9.60
2011,11,27,13,43,9.70
2011,11,27,13,44,9.70
2011,11,27,13,45,9.70
2011,11,27,13,46,9.70
2011,11,27,13,47,9.70
2011,11,27,13,48,9.70
2011,11,27,13,49,9.70
2011,11,27,13,50,9.70
2011,11,27,13,51,9.70
2011,11,27,13,52,9.70
2011,11,27,13,53,9.70
2011,11,27,13,54,9.70
2011,11,27,13,55,9.70
2011,11,27,13,56,9.60
2011,11,27,13,57,9.60
2011,11,27,13,58,9.70
2011,11,27,13,59,9.70
2011,11,27,14,00,9.60
2011,11,27,14,01,9.60
2011,11,27,14,02,9.60
2011,11,27,14,03,9.60
2011,11,27,14,04,9.60
2011,11,27,14,05,9.60
2011,11,27,14,06,9.60
2011,11,27,14,07,9.60
2011,11,27,14,08,9.60
2011,11,27,14,09,9.50
2011,11,27,14,10,9.50
2011,11,27,14,11,9.50
2011,11,27,14,12,9.40
2011,11,27,14,13,9.40
2011,11,27,14,14,9.30
2011,11,27,14,15,9.30
2011,11,27,14,16,9.20
2011,11,27,14,17,9.20
2011,11,27,14,18,9.10
2011,11,27,14,19,9.10
2011,11,27,14,20,9.00
2011,11,27,14,21,9.00
2011,11,27,14,22,9.00
2011,11,27,14,23,9.00
2011,11,27,14,24,9.00
2011,11,27,14,25,9.00
2011,11,27,14,26,9.00
2011,11,27,14,27,9.00
2011,11,27,14,28,9.00
2011,11,27,14,29,9.00
2011,11,27,14,30,9.00
2011,11,27,14,31,9.00
2011,11,27,14,32,9.00
2011,11,27,14,33,9.00
2011,11,27,14,34,9.10
2011,11,27,14,35,9.10
2011,11,27,14,36,9.10
2011,11,27,14,37,9.10
2011,11,27,14,38,9.20
2011,11,27,14,39,9.20
2011,11,27,14,40,9.20
2011,11,27,14,41,9.20
2011,11,27,14,42,9.20
2011,11,27,14,43,9.20
2011,11,27,14,44,9.20
2011,11,27,14,45,9.20
2011,11,27,14,46,9.20
2011,11,27,14,47,9.30
2011,11,27,14,48,9.30
2011,11,27,14,49,9.30
2011,11,27,14,50,9.30
2011,11,27,14,51,9.30
2011,11,27,14,52,9.30
2011,11,27,14,53,9.30
2011,11,27,14,54,9.30
2011,11,27,14,55,9.20
2011,11,27,14,56,9.20
2011,11,27,14,57,9.10
2011,11,27,14,58,9.10
2011,11,27,14,59,9.00
2011,11,27,15,00,8.90
2011,11,27,15,01,8.80
2011,11,27,15,02,8.70
2011,11,27,15,03,8.70
2011,11,27,15,04,8.70
2011,11,27,15,05,8.70
2011,11,27,15,06,8.60
2011,11,27,15,07,8.60
2011,11,27,15,08,8.60
2011,11,27,15,09,8.50
2011,11,27,15,10,8.50
2011,11,27,15,11,8.50
2011,11,27,15,12,8.50
2011,11,27,15,13,8.40
2011,11,27,15,14,8.40
2011,11,27,15,15,8.40
2011,11,27,15,16,8.40
2011,11,27,15,17,8.40
2011,11,27,15,18,8.40
2011,11,27,15,19,8.40
2011,11,27,15,20,8.40
2011,11,27,15,21,8.40
2011,11,27,15,22,8.40
2011,11,27,15,23,8.40
2011,11,27,15,24,8.30
2011,11,27,15,25,8.30
2011,11,27,15,26,8.30
2011,11,27,15,27,8.30
2011,11,27,15,28,8.30
2011,11,27,15,29,8.30
2011,11,27,15,30,8.30
2011,11,27,15,31,8.30
2011,11,27,15,32,8.30
2011,11,27,15,33,8.30
2011,11,27,15,34,8.30
2011,11,27,15,35,8.30
2011,11,27,15,36,8.20
2011,11,27,15,37,8.20
2011,11,27,15,38,8.20
2011,11,27,15,39,8.20
2011,11,27,15,40,8.20
2011,11,27,15,41,8.20
2011,11,27,15,42,8.20
2011,11,27,15,43,8.20
2011,11,27,15,44,8.20
2011,11,27,15,45,8.20
2011,11,27,15,46,8.20
2011,11,27,15,47,8.20
2011,11,27,15,48,8.20
2011,11,27,15,49,8.20
2011,11,27,15,50,8.20
2011,11,27,15,51,8.20
2011,11,27,15,52,8.20
2011,11,27,15,53,8.20
2011,11,27,15,54,8.20
2011,11,27,15,55,8.20
2011,11,27,15,56,8.10
2011,11,27,15,57,8.10
2011,11,27,15,58,8.10
2011,11,27,15,59,8.10
2011,11,27,16,00,8.10
2011,11,27,16,01,8.10
2011,11,27,16,02,8.10
2011,11,27,16,03,8.10
2011,11,27,16,04,8.10
2011,11,27,16,05,8.10
2011,11,27,16,06,8.10
2011,11,27,16,07,8.10
2011,11,27,16,08,8.10
2011,11,27,16,09,8.00
2011,11,27,16,10,8.00
2011,11,27,16,11,8.00
2011,11,27,16,12,8.00
2011,11,27,16,13,7.90
2011,11,27,16,14,7.90
2011,11,27,16,15,7.90
2011,11,27,16,16,7.90
2011,11,27,16,17,7.90
2011,11,27,16,18,7.90
2011,11,27,16,19,7.80
2011,11,27,16,20,7.80
2011,11,27,16,21,7.80
2011,11,27,16,22,7.80
2011,11,27,16,23,7.80
2011,11,27,16,24,7.80
2011,11,27,16,25,7.80
2011,11,27,16,26,7.80
2011,11,27,16,27,7.80
2011,11,27,16,28,7.80
2011,11,27,16,29,7.80
2011,11,27,16,30,7.80
2011,11,27,16,31,7.80
2011,11,27,16,32,7.80
2011,11,27,16,33,7.80
2011,11,27,16,34,7.80
2011,11,27,16,35,7.80
2011,11,27,16,36,7.80
2011,11,27,16,37,7.70
2011,11,27,16,38,7.70
2011,11,27,16,39,7.70
2011,11,27,16,40,7.70
2011,11,27,16,41,7.60
2011,11,27,16,42,7.60
2011,11,27,16,43,7.60
2011,11,27,16,44,7.60
2011,11,27,16,45,7.50
2011,11,27,16,46,7.50
2011,11,27,16,47,7.50
2011,11,27,16,48,7.40
2011,11,27,16,49,7.40
2011,11,27,16,50,7.40
2011,11,27,16,51,7.40
2011,11,27,16,52,7.40
2011,11,27,16,53,7.30
2011,11,27,16,54,7.30
2011,11,27,16,55,7.40
2011,11,27,16,56,7.30
2011,11,27,16,57,7.30
2011,11,27,16,58,7.30
2011,11,27,16,59,7.30
2011,11,27,17,00,7.30
2011,11,27,17,01,7.30
2011,11,27,17,02,7.30
2011,11,27,17,03,7.30
2011,11,27,17,04,7.30
2011,11,27,17,05,7.30
2011,11,27,17,06,7.20
2011,11,27,17,07,7.20
2011,11,27,17,08,7.20
2011,11,27,17,09,7.10
2011,11,27,17,10,7.10
2011,11,27,17,11,7.10
2011,11,27,17,12,7.10
2011,11,27,17,13,7.10
2011,11,27,17,14,7.10
2011,11,27,17,15,7.10
2011,11,27,17,16,7.00
2011,11,27,17,17,7.00
2011,11,27,17,18,7.00
2011,11,27,17,19,7.00
2011,11,27,17,20,7.00
2011,11,27,17,21,7.00
2011,11,27,17,22,7.00
2011,11,27,17,23,7.00
2011,11,27,17,24,6.90
2011,11,27,17,25,6.90
2011,11,27,17,26,6.90
2011,11,27,17,27,6.90
2011,11,27,17,28,6.90
2011,11,27,17,29,6.90
2011,11,27,17,30,6.90
2011,11,27,17,31,6.90
2011,11,27,17,32,6.90
2011,11,27,17,33,6.80
2011,11,27,17,34,6.80
2011,11,27,17,35,6.80
2011,11,27,17,36,6.80
2011,11,27,17,37,6.80
2011,11,27,17,38,6.80
2011,11,27,17,39,6.80